SHIJIAN-17 (SJ-17)

Last updated on Fri Sep 12 2025 00:02:48 GMT+0000 (Coordinated Universal Time)

1 41838U 16065A 25254.71381615 .00000060 00000+0 00000+0 0 9996 2 41838 5.0390 75.9622 0000401 243.2272 110.7454 1.00271564 32419
UTC large
Height (km)
Speed (km/s)
/
Latitude / Longitude
Inclination (degrees)
Orbital Period (minutes)
Azimuth
Elevation
Range (km)
Doppler Factor

Next 0 passes for location: London (51.5072 / 0.1276)

Sorry there are no passes over London.